,,,PA_Meas_PMT16A,,PR_Meas_QMR101_102,,RH_Meas_QMH101,,SR_Meas_QMS101,,TA_Meas_QMH101,,GenWind,,GenWind,
date,time,status,PA,status,PR,status,RH,status,SR,status,TA,status,DirAvg,status,SpdAvg,
2012-05-07, 00:00:05,VALID,1001.61,VALID,0,VALID,95.5228,VALID,0,VALID,23.2524,VALID,118,VALID,1.39023,
2012-05-07, 00:01:05,VALID,1001.58,VALID,0,VALID,95.5,VALID,0,VALID,23.2719,VALID,118,VALID,1.39805,
2012-05-07, 00:02:05,VALID,1001.56,VALID,0,VALID,95.5381,VALID,0,VALID,23.2524,VALID,123,VALID,1.22969,
2012-05-07, 00:03:05,VALID,1001.49,VALID,0,VALID,95.5228,VALID,0,VALID,23.2524,VALID,123,VALID,0.999609,
2012-05-07, 00:04:05,VALID,1001.53,VALID,0,VALID,95.5076,VALID,0,VALID,23.2524,VALID,125,VALID,1.08359,
2012-05-07, 00:05:05,VALID,1001.47,VALID,0,VALID,95.5152,VALID,0,VALID,23.2524,VALID,125,VALID,0.921875,
2012-05-07, 00:06:05,VALID,1001.47,VALID,0,VALID,95.5152,VALID,0,VALID,23.2524,VALID,110,VALID,1.25156,
2012-05-07, 00:07:05,VALID,1001.48,VALID,0,VALID,95.5152,VALID,0,VALID,23.2524,VALID,104,VALID,0.739453,
2012-05-07, 00:08:05,VALID,1001.48,VALID,0,VALID,95.5305,VALID,0,VALID,23.2524,VALID,105,VALID,0.330859,
2012-05-07, 00:09:05,VALID,1001.48,VALID,0,VALID,95.5381,VALID,0,VALID,23.2524,VALID,109,VALID,0.0335938,
2012-05-07, 00:10:05,VALID,1001.48,VALID,0,VALID,95.5305,VALID,0,VALID,23.2719,VALID,167,VALID,0.534766,
2012-05-07, 00:11:05,VALID,1001.44,VALID,0.5,VALID,95.5381,VALID,0,VALID,23.2719,VALID,111,VALID,0.660547,
2012-05-07, 00:12:05,VALID,1001.43,VALID,0,VALID,95.5381,VALID,0,VALID,23.2312,VALID,19,VALID,0.842188,
2012-05-07, 00:13:05,VALID,1001.4,VALID,0,VALID,95.5305,VALID,0,VALID,23.2312,VALID,294,VALID,0.536719,
2012-05-07, 00:14:05,VALID,1001.39,VALID,0,VALID,95.5534,VALID,0,VALID,23.2312,VALID,303,VALID,0.444141,
2012-05-07, 00:15:05,VALID,1001.4,VALID,0,VALID,95.5228,VALID,0,VALID,23.2329,VALID,305,VALID,0.0726563,
2012-05-07, 00:16:05,VALID,1001.43,VALID,0,VALID,95.5076,VALID,0,VALID,23.2524,VALID,305,VALID,0.0289063,
2012-05-07, 00:17:05,VALID,1001.4,VALID,0,VALID,95.5228,VALID,0,VALID,23.2524,VALID,305,VALID,0.4375,
2012-05-07, 00:18:05,VALID,1001.37,VALID,0,VALID,95.5228,VALID,0,VALID,23.2737,VALID,305,VALID,0.419922,
2012-05-07, 00:19:05,VALID,1001.35,VALID,0,VALID,95.5076,VALID,0,VALID,23.2719,VALID,328,VALID,0.605859,
2012-05-07, 00:20:05,VALID,1001.3,VALID,0,VALID,95.5152,VALID,0,VALID,23.2312,VALID,337,VALID,0.447266,
2012-05-07, 00:21:05,VALID,1001.3,VALID,0,VALID,95.5381,VALID,0,VALID,23.2719,VALID,337,VALID,0.4875,
2012-05-07, 00:22:05,VALID,1001.26,VALID,0,VALID,95.5076,VALID,0,VALID,23.2719,VALID,337,VALID,0.505078,
2012-05-07, 00:23:05,VALID,1001.29,VALID,0.5,VALID,95.5076,VALID,0,VALID,23.2915,VALID,337,VALID,0.404687,
2012-05-07, 00:24:05,VALID,1001.26,VALID,0,VALID,95.5305,VALID,0,VALID,23.2915,VALID,337,VALID,0.323438,
2012-05-07, 00:25:05,VALID,1001.24,VALID,0,VALID,95.5228,VALID,0,VALID,23.2507,VALID,337,VALID,0.332812,
2012-05-07, 00:26:05,VALID,1001.22,VALID,0,VALID,95.5152,VALID,0,VALID,23.2915,VALID,337,VALID,0.539453,
2012-05-07, 00:27:05,VALID,1001.22,VALID,0,VALID,95.5152,VALID,0,VALID,23.2702,VALID,337,VALID,0.530078,
2012-05-07, 00:28:05,VALID,1001.2,VALID,0,VALID,95.5228,VALID,0,VALID,23.2719,VALID,337,VALID,0.566797,
2012-05-07, 00:29:05,VALID,1001.23,VALID,0,VALID,95.5381,VALID,0,VALID,23.2915,VALID,337,VALID,0.532812,
2012-05-07, 00:30:05,VALID,1001.16,VALID,0,VALID,95.5381,VALID,0,VALID,23.2915,VALID,52,VALID,0.759766,
2012-05-07, 00:31:05,VALID,1001.13,VALID,0,VALID,95.5457,VALID,0,VALID,23.2915,VALID,76,VALID,0.806641,
2012-05-07, 00:32:05,VALID,1001.12,VALID,0,VALID,95.5534,VALID,0,VALID,23.2719,VALID,83,VALID,1.31172,
2012-05-07, 00:33:05,VALID,1001.13,VALID,0,VALID,95.561,VALID,0,VALID,23.2719,VALID,78,VALID,1.25312,
2012-05-07, 00:34:05,VALID,1001.13,VALID,0.5,VALID,95.5457,VALID,0,VALID,23.2719,VALID,81,VALID,1.29766,
2012-05-07, 00:35:05,VALID,1001.11,VALID,0,VALID,95.5457,VALID,0,VALID,23.2312,VALID,83,VALID,1.12109,
2012-05-07, 00:36:05,VALID,1001.06,VALID,0,VALID,95.5457,VALID,0,VALID,23.2719,VALID,80,VALID,1.18047,
2012-05-07, 00:37:05,VALID,1001.03,VALID,0,VALID,95.5534,VALID,0,VALID,23.2719,VALID,82,VALID,1.30938,
2012-05-07, 00:38:05,VALID,1001.02,VALID,0,VALID,95.5686,VALID,0,VALID,23.2915,VALID,87,VALID,1.2707,
2012-05-07, 00:39:05,VALID,1001,VALID,0,VALID,95.5457,VALID,0,VALID,23.2702,VALID,92,VALID,0.810547,
2012-05-07, 00:40:05,VALID,1000.96,VALID,0,VALID,95.5534,VALID,0,VALID,23.2915,VALID,97,VALID,0.783203,
2012-05-07, 00:41:05,VALID,1000.93,VALID,0.5,VALID,95.561,VALID,0,VALID,23.2702,VALID,97,VALID,0.743359,
2012-05-07, 00:42:05,VALID,1000.9,VALID,0,VALID,95.5839,VALID,0,VALID,23.2507,VALID,93,VALID,0.839453,
2012-05-07, 00:43:05,VALID,1000.88,VALID,0,VALID,95.561,VALID,0,VALID,23.2719,VALID,92,VALID,0.597656,
2012-05-07, 00:44:05,VALID,1000.87,VALID,0,VALID,95.5762,VALID,0,VALID,23.2524,VALID,80,VALID,0.842969,
2012-05-07, 00:45:05,VALID,1000.85,VALID,0,VALID,95.561,VALID,0,VALID,23.2719,VALID,82,VALID,0.659375,
2012-05-07, 00:46:05,VALID,1000.84,VALID,0,VALID,95.5839,VALID,0,VALID,23.2524,VALID,82,VALID,0.539063,
2012-05-07, 00:47:05,VALID,1000.82,VALID,0,VALID,95.5839,VALID,0,VALID,23.2524,VALID,117,VALID,0.328125,
2012-05-07, 00:48:05,VALID,1000.82,VALID,0,VALID,95.561,VALID,0,VALID,23.2507,VALID,122,VALID,0.670313,
2012-05-07, 00:49:05,VALID,1000.83,VALID,0,VALID,95.5762,VALID,0,VALID,23.2524,VALID,122,VALID,0.891016,
2012-05-07, 00:50:05,VALID,1000.82,VALID,0,VALID,95.5686,VALID,0,VALID,23.2312,VALID,135,VALID,1.06484,
2012-05-07, 00:51:05,VALID,1000.78,VALID,0.5,VALID,95.5915,VALID,0,VALID,23.2524,VALID,135,VALID,0.899219,
2012-05-07, 00:52:05,VALID,1000.78,VALID,0,VALID,95.5915,VALID,0,VALID,23.2329,VALID,135,VALID,1.27227,
2012-05-07, 00:53:05,VALID,1000.75,VALID,0,VALID,95.5991,VALID,0,VALID,23.2117,VALID,119,VALID,1.16523,
2012-05-07, 00:54:05,VALID,1000.74,VALID,0,VALID,95.5991,VALID,0,VALID,23.2329,VALID,119,VALID,1.18477,
2012-05-07, 00:55:05,VALID,1000.72,VALID,0,VALID,95.5991,VALID,0,VALID,23.2134,VALID,110,VALID,1.14297,
2012-05-07, 00:56:05,VALID,1000.73,VALID,0,VALID,95.6068,VALID,0,VALID,23.2134,VALID,101,VALID,1.13945,
2012-05-07, 00:57:05,VALID,1000.73,VALID,0,VALID,95.6068,VALID,0,VALID,23.2134,VALID,98,VALID,1.15,
2012-05-07, 00:58:05,VALID,1000.74,VALID,0,VALID,95.622,VALID,0,VALID,23.1939,VALID,121,VALID,1.29648,
2012-05-07, 00:59:05,VALID,1000.71,VALID,0,VALID,95.6068,VALID,0,VALID,23.1939,VALID,116,VALID,1.09922,
2012-05-07, 01:00:05,VALID,1000.71,VALID,0,VALID,95.5991,VALID,0,VALID,23.1939,VALID,115,VALID,1.00078,
2012-05-07, 01:01:05,VALID,1000.71,VALID,0,VALID,95.5991,VALID,0,VALID,23.1939,VALID,115,VALID,0.698438,
2012-05-07, 01:02:05,VALID,1000.71,VALID,0,VALID,95.5991,VALID,0,VALID,23.2134,VALID,102,VALID,0.774609,
2012-05-07, 01:03:05,VALID,1000.71,VALID,0,VALID,95.5915,VALID,0,VALID,23.2134,VALID,97,VALID,1.04336,
2012-05-07, 01:04:05,VALID,1000.68,VALID,0,VALID,95.5991,VALID,0,VALID,23.1921,VALID,86,VALID,0.728516,
2012-05-07, 01:05:05,VALID,1000.66,VALID,0,VALID,95.6068,VALID,0,VALID,23.1939,VALID,85,VALID,0.895703,
2012-05-07, 01:06:05,VALID,1000.68,VALID,0,VALID,95.6068,VALID,0,VALID,23.1939,VALID,75,VALID,0.824219,
2012-05-07, 01:07:05,VALID,1000.68,VALID,0,VALID,95.6144,VALID,0,VALID,23.1939,VALID,62,VALID,0.558203,
2012-05-07, 01:08:05,VALID,1000.65,VALID,0,VALID,95.6068,VALID,0,VALID,23.1726,VALID,62,VALID,0.517969,
2012-05-07, 01:09:05,VALID,1000.64,VALID,0,VALID,95.5991,VALID,0,VALID,23.1939,VALID,48,VALID,0.673047,
2012-05-07, 01:10:05,VALID,1000.6,VALID,0,VALID,95.6297,VALID,0,VALID,23.1744,VALID,10,VALID,0.541797,
2012-05-07, 01:11:05,VALID,1000.59,VALID,0,VALID,95.6144,VALID,0,VALID,23.1744,VALID,10,VALID,0.0832031,
2012-05-07, 01:12:05,VALID,1000.58,VALID,0,VALID,95.6144,VALID,0,VALID,23.1744,VALID,10,VALID,0,
2012-05-07, 01:13:05,VALID,1000.53,VALID,0,VALID,95.6297,VALID,0,VALID,23.1336,VALID,10,VALID,0.316797,
2012-05-07, 01:14:05,VALID,1000.5,VALID,0,VALID,95.6144,VALID,0,VALID,23.1336,VALID,10,VALID,0.0257812,
2012-05-07, 01:15:05,VALID,1000.49,VALID,0,VALID,95.6373,VALID,0,VALID,23.1549,VALID,10,VALID,0.246484,
2012-05-07, 01:16:05,VALID,1000.47,VALID,0,VALID,95.6297,VALID,0,VALID,23.1336,VALID,10,VALID,0,
2012-05-07, 01:17:05,VALID,1000.48,VALID,0,VALID,95.6144,VALID,0,VALID,23.1354,VALID,10,VALID,0,
2012-05-07, 01:18:05,VALID,1000.43,VALID,0,VALID,95.6373,VALID,0,VALID,23.1354,VALID,10,VALID,0.201562,
2012-05-07, 01:19:05,VALID,1000.41,VALID,0,VALID,95.6144,VALID,0,VALID,23.1159,VALID,10,VALID,0.403125,
2012-05-07, 01:20:05,VALID,1000.39,VALID,0,VALID,95.622,VALID,0,VALID,23.1159,VALID,10,VALID,0.516406,
2012-05-07, 01:21:05,VALID,1000.36,VALID,0,VALID,95.6144,VALID,0,VALID,23.1159,VALID,10,VALID,0.502344,
2012-05-07, 01:22:05,VALID,1000.31,VALID,0,VALID,95.622,VALID,0,VALID,23.0964,VALID,10,VALID,0.399609,
2012-05-07, 01:23:05,VALID,1000.3,VALID,0,VALID,95.6297,VALID,0,VALID,23.1159,VALID,10,VALID,0.505859,
2012-05-07, 01:24:05,VALID,1000.29,VALID,0,VALID,95.622,VALID,0,VALID,23.1354,VALID,257,VALID,1.33516,
2012-05-07, 01:25:05,VALID,1000.26,VALID,0,VALID,95.622,VALID,0,VALID,23.1744,VALID,170,VALID,1.34961,
2012-05-07, 01:26:05,VALID,1000.22,VALID,0,VALID,95.6144,VALID,0,VALID,23.1939,VALID,170,VALID,1.57461,
2012-05-07, 01:27:05,VALID,1000.21,VALID,0,VALID,95.622,VALID,0,VALID,23.1939,VALID,175,VALID,1.06367,
2012-05-07, 01:28:05,VALID,1000.17,VALID,0,VALID,95.6297,VALID,0,VALID,23.2329,VALID,176,VALID,1.49375,
2012-05-07, 01:29:05,VALID,1000.18,VALID,0,VALID,95.5915,VALID,0,VALID,23.2524,VALID,182,VALID,1.66953,
2012-05-07, 01:30:05,VALID,1000.19,VALID,0,VALID,95.6144,VALID,0,VALID,23.2312,VALID,197,VALID,1.01094,
2012-05-07, 01:31:05,VALID,1000.16,VALID,0,VALID,95.6144,VALID,0,VALID,23.2312,VALID,197,VALID,0.565625,
2012-05-07, 01:32:05,VALID,1000.14,VALID,0,VALID,95.6144,VALID,0.104696,VALID,23.2719,VALID,195,VALID,0.354297,
2012-05-07, 01:33:05,VALID,1000.13,VALID,0,VALID,95.622,VALID,0,VALID,23.2524,VALID,255,VALID,0.496094,
2012-05-07, 01:34:04,VALID,1000.12,VALID,0,VALID,95.6297,VALID,0,VALID,23.2312,VALID,279,VALID,0.670313,
2012-05-07, 01:35:04,VALID,1000.16,VALID,0,VALID,95.622,VALID,0,VALID,23.2117,VALID,317,VALID,0.614844,
2012-05-07, 01:36:04,VALID,1000.09,VALID,0,VALID,95.6525,VALID,0,VALID,23.2329,VALID,317,VALID,0.628906,
2012-05-07, 01:37:04,VALID,1000.04,VALID,0,VALID,95.6068,VALID,0,VALID,23.2347,VALID,317,VALID,0.577344,
2012-05-07, 01:38:04,VALID,1000.04,VALID,0,VALID,95.6373,VALID,0,VALID,23.2152,VALID,322,VALID,0.623047,
2012-05-07, 01:39:04,VALID,1000.02,VALID,0,VALID,95.622,VALID,0,VALID,23.1939,VALID,324,VALID,0.536719,
2012-05-07, 01:40:04,VALID,1000.02,VALID,0,VALID,95.6373,VALID,0,VALID,23.2152,VALID,324,VALID,0.419531,
2012-05-07, 01:41:04,VALID,1000.01,VALID,0,VALID,95.6373,VALID,0,VALID,23.1549,VALID,324,VALID,0.241797,
2012-05-07, 01:42:04,VALID,1000.01,VALID,0,VALID,95.6373,VALID,0,VALID,23.1549,VALID,324,VALID,0.425781,
2012-05-07, 01:43:04,VALID,999.988,VALID,0,VALID,95.6144,VALID,0,VALID,23.1354,VALID,324,VALID,0.382422,
2012-05-07, 01:44:04,VALID,1000,VALID,0,VALID,95.6297,VALID,0,VALID,23.1762,VALID,323,VALID,0.512109,
2012-05-07, 01:45:04,VALID,999.992,VALID,0,VALID,95.6373,VALID,0,VALID,23.1549,VALID,317,VALID,0.460156,
2012-05-07, 01:46:04,VALID,999.982,VALID,0,VALID,95.6449,VALID,0,VALID,23.1566,VALID,317,VALID,0.491797,
2012-05-07, 01:47:04,VALID,999.981,VALID,0,VALID,95.6297,VALID,0,VALID,23.1566,VALID,317,VALID,0.378516,
2012-05-07, 01:48:04,VALID,999.95,VALID,0,VALID,95.6449,VALID,0,VALID,23.1762,VALID,317,VALID,0.297266,
2012-05-07, 01:49:04,VALID,999.964,VALID,0,VALID,95.6373,VALID,0,VALID,23.1549,VALID,317,VALID,0.253516,
2012-05-07, 01:50:04,VALID,999.972,VALID,0,VALID,95.6144,VALID,0,VALID,23.1354,VALID,317,VALID,0.4625,
2012-05-07, 01:51:04,VALID,999.932,VALID,0,VALID,95.6068,VALID,0,VALID,23.1566,VALID,317,VALID,0.410547,
2012-05-07, 01:52:04,VALID,999.952,VALID,0,VALID,95.6373,VALID,0,VALID,23.1549,VALID,317,VALID,0.279687,
2012-05-07, 01:53:04,VALID,999.947,VALID,0,VALID,95.622,VALID,0,VALID,23.1549,VALID,317,VALID,0.63125,
2012-05-07, 01:54:04,VALID,999.937,VALID,0,VALID,95.6297,VALID,0,VALID,23.1549,VALID,317,VALID,0.267188,
2012-05-07, 01:55:04,VALID,999.976,VALID,0,VALID,95.6144,VALID,0,VALID,23.1549,VALID,317,VALID,0,
2012-05-07, 01:56:04,VALID,999.953,VALID,0,VALID,95.6297,VALID,0,VALID,23.1549,VALID,317,VALID,0,
2012-05-07, 01:57:04,VALID,999.937,VALID,0,VALID,95.6373,VALID,0,VALID,23.1549,VALID,317,VALID,0.194922,
2012-05-07, 01:58:04,VALID,999.93,VALID,0,VALID,95.622,VALID,0,VALID,23.1336,VALID,317,VALID,0.0441406,
2012-05-07, 01:59:04,VALID,999.97,VALID,0,VALID,95.6297,VALID,0,VALID,23.1336,VALID,317,VALID,0,
2012-05-07, 02:00:04,VALID,999.915,VALID,0,VALID,95.6297,VALID,0,VALID,23.1549,VALID,317,VALID,0,
2012-05-07, 02:01:04,VALID,999.918,VALID,0,VALID,95.6449,VALID,0,VALID,23.1549,VALID,317,VALID,0,
2012-05-07, 02:02:04,VALID,999.885,VALID,0,VALID,95.6297,VALID,0,VALID,23.1354,VALID,317,VALID,0,
2012-05-07, 02:03:04,VALID,999.88,VALID,0,VALID,95.6297,VALID,0,VALID,23.1336,VALID,317,VALID,0,
2012-05-07, 02:04:04,VALID,999.872,VALID,0,VALID,95.6297,VALID,0,VALID,23.1141,VALID,317,VALID,0,
2012-05-07, 02:05:04,VALID,999.859,VALID,0,VALID,95.6525,VALID,0,VALID,23.0946,VALID,317,VALID,0,
2012-05-07, 02:06:04,VALID,999.85,VALID,0,VALID,95.6373,VALID,0,VALID,23.1159,VALID,317,VALID,0,
2012-05-07, 02:07:04,VALID,999.844,VALID,0,VALID,95.6525,VALID,0,VALID,23.1371,VALID,317,VALID,0,
2012-05-07, 02:08:04,VALID,999.828,VALID,0,VALID,95.6373,VALID,0,VALID,23.1159,VALID,317,VALID,0,
2012-05-07, 02:09:04,VALID,999.816,VALID,0,VALID,95.6449,VALID,0,VALID,23.0964,VALID,317,VALID,0.535156,
2012-05-07, 02:10:04,VALID,999.805,VALID,0,VALID,95.622,VALID,0,VALID,23.1371,VALID,317,VALID,0.615234,
2012-05-07, 02:11:04,VALID,999.794,VALID,0,VALID,95.6449,VALID,0,VALID,23.1159,VALID,317,VALID,0.66875,
2012-05-07, 02:12:04,VALID,999.806,VALID,0,VALID,95.6449,VALID,0,VALID,23.1371,VALID,317,VALID,0.571094,
2012-05-07, 02:13:04,VALID,999.751,VALID,0,VALID,95.6449,VALID,0,VALID,23.1159,VALID,317,VALID,0.582422,
2012-05-07, 02:14:04,VALID,999.76,VALID,0,VALID,95.6525,VALID,0,VALID,23.1159,VALID,317,VALID,0.407422,
2012-05-07, 02:15:04,VALID,999.741,VALID,0,VALID,95.6525,VALID,0,VALID,23.0964,VALID,317,VALID,0,
2012-05-07, 02:16:04,VALID,999.751,VALID,0,VALID,95.6525,VALID,0,VALID,23.0981,VALID,317,VALID,0,
2012-05-07, 02:17:04,VALID,999.73,VALID,0,VALID,95.6449,VALID,0,VALID,23.0981,VALID,317,VALID,0,
2012-05-07, 02:18:04,VALID,999.709,VALID,0,VALID,95.6525,VALID,0,VALID,23.1176,VALID,110,VALID,0.759766,
2012-05-07, 02:19:04,VALID,999.688,VALID,0,VALID,95.6525,VALID,0,VALID,23.0786,VALID,113,VALID,0.777734,
2012-05-07, 02:20:04,VALID,999.668,VALID,0,VALID,95.6602,VALID,0,VALID,23.0786,VALID,123,VALID,0.791406,
2012-05-07, 02:21:04,VALID,999.653,VALID,0,VALID,95.6449,VALID,0,VALID,23.0769,VALID,127,VALID,0.811328,
2012-05-07, 02:22:04,VALID,999.661,VALID,0,VALID,95.6754,VALID,0,VALID,23.0786,VALID,127,VALID,0.847266,
2012-05-07, 02:23:04,VALID,999.657,VALID,0,VALID,95.6602,VALID,0,VALID,23.0786,VALID,127,VALID,0.848437,
2012-05-07, 02:24:04,VALID,999.636,VALID,0,VALID,95.6449,VALID,0,VALID,23.0573,VALID,127,VALID,0.854297,
2012-05-07, 02:25:04,VALID,999.645,VALID,0,VALID,95.6602,VALID,0,VALID,23.0573,VALID,127,VALID,0.786328,
2012-05-07, 02:26:04,VALID,999.628,VALID,0,VALID,95.6602,VALID,0,VALID,23.0786,VALID,127,VALID,1.00391,
2012-05-07, 02:27:04,VALID,999.653,VALID,0,VALID,95.6525,VALID,0,VALID,23.0786,VALID,127,VALID,0.776953,
2012-05-07, 02:28:04,VALID,999.646,VALID,0,VALID,95.6373,VALID,0,VALID,23.0981,VALID,121,VALID,0.970703,
2012-05-07, 02:29:04,VALID,999.688,VALID,0,VALID,95.6449,VALID,0,VALID,23.0981,VALID,115,VALID,0.719531,
2012-05-07, 02:30:04,VALID,999.65,VALID,0,VALID,95.6525,VALID,0,VALID,23.0964,VALID,115,VALID,0.894922,
2012-05-07, 02:31:04,VALID,999.669,VALID,0,VALID,95.6297,VALID,0,VALID,23.1159,VALID,115,VALID,0.968359,
2012-05-07, 02:32:04,VALID,999.665,VALID,0,VALID,95.6525,VALID,0,VALID,23.1176,VALID,113,VALID,1.2668,
2012-05-07, 02:33:04,VALID,999.627,VALID,0,VALID,95.6602,VALID,0,VALID,23.1176,VALID,113,VALID,1,
2012-05-07, 02:34:04,VALID,999.599,VALID,0,VALID,95.6525,VALID,0,VALID,23.1159,VALID,121,VALID,0.934766,
2012-05-07, 02:35:04,VALID,999.586,VALID,0,VALID,95.6525,VALID,0,VALID,23.1566,VALID,122,VALID,1.13008,
2012-05-07, 02:36:04,VALID,999.578,VALID,0,VALID,95.6449,VALID,0,VALID,23.1159,VALID,122,VALID,0.935547,
2012-05-07, 02:37:04,VALID,999.541,VALID,0,VALID,95.6373,VALID,0,VALID,23.1371,VALID,122,VALID,0.701563,
2012-05-07, 02:38:04,VALID,999.528,VALID,0,VALID,95.6373,VALID,0,VALID,23.1371,VALID,135,VALID,1.05508,
2012-05-07, 02:39:04,VALID,999.519,VALID,0,VALID,95.6602,VALID,0,VALID,23.1371,VALID,136,VALID,1.05938,
2012-05-07, 02:40:04,VALID,999.538,VALID,0,VALID,95.6449,VALID,0,VALID,23.1354,VALID,149,VALID,1.19141,
2012-05-07, 02:41:04,VALID,999.512,VALID,0,VALID,95.6449,VALID,0,VALID,23.1354,VALID,147,VALID,1.28477,
2012-05-07, 02:42:04,VALID,999.532,VALID,0,VALID,95.6449,VALID,0,VALID,23.1354,VALID,139,VALID,1.58594,
2012-05-07, 02:43:04,VALID,999.526,VALID,0,VALID,95.6602,VALID,0,VALID,23.1762,VALID,136,VALID,1.55469,
2012-05-07, 02:44:04,VALID,999.547,VALID,0,VALID,95.6525,VALID,0,VALID,23.1566,VALID,133,VALID,1.65234,
2012-05-07, 02:45:04,VALID,999.571,VALID,0,VALID,95.6678,VALID,0,VALID,23.1566,VALID,139,VALID,1.3707,
2012-05-07, 02:46:04,VALID,999.556,VALID,0,VALID,95.6678,VALID,0,VALID,23.1566,VALID,132,VALID,1.21641,
2012-05-07, 02:47:04,VALID,999.557,VALID,0,VALID,95.6525,VALID,0,VALID,23.1566,VALID,133,VALID,1.41094,
2012-05-07, 02:48:04,VALID,999.547,VALID,0,VALID,95.6602,VALID,0,VALID,23.1354,VALID,134,VALID,1.46367,
2012-05-07, 02:49:04,VALID,999.554,VALID,0,VALID,95.6678,VALID,0,VALID,23.1371,VALID,133,VALID,1.22617,
2012-05-07, 02:50:04,VALID,999.557,VALID,0,VALID,95.6602,VALID,0,VALID,23.1159,VALID,123,VALID,1.45156,
2012-05-07, 02:51:04,VALID,999.503,VALID,0,VALID,95.6525,VALID,0,VALID,23.1371,VALID,125,VALID,1.25234,
2012-05-07, 02:52:04,VALID,999.5,VALID,0,VALID,95.6678,VALID,0.104696,VALID,23.1141,VALID,120,VALID,0.935938,
2012-05-07, 02:53:04,VALID,999.518,VALID,0,VALID,95.6602,VALID,0,VALID,23.1141,VALID,127,VALID,0.517969,
2012-05-07, 02:54:04,VALID,999.495,VALID,0,VALID,95.6602,VALID,0,VALID,23.1336,VALID,127,VALID,0.453516,
2012-05-07, 02:55:04,VALID,999.489,VALID,0,VALID,95.6602,VALID,0,VALID,23.1141,VALID,126,VALID,0.559375,
2012-05-07, 02:56:04,VALID,999.488,VALID,0,VALID,95.6525,VALID,0,VALID,23.1354,VALID,130,VALID,0.768359,
2012-05-07, 02:57:04,VALID,999.496,VALID,0,VALID,95.6449,VALID,0,VALID,23.1159,VALID,133,VALID,0.59375,
2012-05-07, 02:58:04,VALID,999.498,VALID,0,VALID,95.6678,VALID,0,VALID,23.1141,VALID,133,VALID,0.400391,
2012-05-07, 02:59:04,VALID,999.52,VALID,0,VALID,95.6525,VALID,0,VALID,23.0946,VALID,133,VALID,0.576563,
2012-05-07, 03:00:04,VALID,999.523,VALID,0,VALID,95.6449,VALID,0,VALID,23.0946,VALID,133,VALID,0.291406,
2012-05-07, 03:01:04,VALID,999.531,VALID,0,VALID,95.6449,VALID,0,VALID,23.1159,VALID,133,VALID,0.477734,
2012-05-07, 03:02:04,VALID,999.542,VALID,0,VALID,95.6602,VALID,0,VALID,23.0964,VALID,153,VALID,0.718359,
2012-05-07, 03:03:04,VALID,999.528,VALID,0.5,VALID,95.6525,VALID,0,VALID,23.0751,VALID,160,VALID,0.904297,
2012-05-07, 03:04:04,VALID,999.541,VALID,0,VALID,95.6449,VALID,0,VALID,23.0946,VALID,173,VALID,0.883203,
2012-05-07, 03:05:04,VALID,999.538,VALID,0,VALID,95.6297,VALID,0,VALID,23.1141,VALID,173,VALID,1.25547,
2012-05-07, 03:06:04,VALID,999.537,VALID,0,VALID,95.6449,VALID,0,VALID,23.1141,VALID,173,VALID,1.08789,
2012-05-07, 03:07:04,VALID,999.546,VALID,0,VALID,95.6678,VALID,0,VALID,23.1336,VALID,173,VALID,1.32813,
2012-05-07, 03:08:04,VALID,999.532,VALID,0,VALID,95.6449,VALID,0,VALID,23.1141,VALID,173,VALID,1.27461,
2012-05-07, 03:09:04,VALID,999.502,VALID,0,VALID,95.6449,VALID,0,VALID,23.1141,VALID,173,VALID,0.895312,
2012-05-07, 03:10:04,VALID,999.513,VALID,0,VALID,95.6602,VALID,0,VALID,23.1336,VALID,173,VALID,0.941016,
2012-05-07, 03:11:04,VALID,999.49,VALID,0,VALID,95.6449,VALID,0,VALID,23.1549,VALID,173,VALID,0.786719,
2012-05-07, 03:12:04,VALID,999.49,VALID,0,VALID,95.6297,VALID,0,VALID,23.1336,VALID,173,VALID,0.580469,
2012-05-07, 03:13:04,VALID,999.487,VALID,0,VALID,95.6373,VALID,0,VALID,23.1549,VALID,173,VALID,0.563672,
2012-05-07, 03:14:04,VALID,999.459,VALID,0,VALID,95.6525,VALID,0,VALID,23.1354,VALID,173,VALID,0.520703,
2012-05-07, 03:15:04,VALID,999.441,VALID,0,VALID,95.6525,VALID,0,VALID,23.1141,VALID,173,VALID,0.469141,
2012-05-07, 03:16:04,VALID,999.441,VALID,0,VALID,95.6602,VALID,0,VALID,23.0946,VALID,173,VALID,0.428125,
2012-05-07, 03:17:04,VALID,999.429,VALID,0,VALID,95.6449,VALID,0,VALID,23.1159,VALID,173,VALID,0.323438,
2012-05-07, 03:18:04,VALID,999.421,VALID,0,VALID,95.6754,VALID,0,VALID,23.0946,VALID,173,VALID,0.523438,
2012-05-07, 03:19:04,VALID,999.422,VALID,0,VALID,95.6602,VALID,0,VALID,23.0751,VALID,173,VALID,0.617969,
2012-05-07, 03:20:04,VALID,999.42,VALID,0,VALID,95.6602,VALID,0,VALID,23.0946,VALID,172,VALID,0.757813,
2012-05-07, 03:21:04,VALID,999.428,VALID,0,VALID,95.6373,VALID,0,VALID,23.0946,VALID,172,VALID,0.614062,
2012-05-07, 03:22:04,VALID,999.432,VALID,0,VALID,95.6525,VALID,0,VALID,23.0769,VALID,172,VALID,0.562891,
2012-05-07, 03:23:04,VALID,999.446,VALID,0,VALID,95.6678,VALID,0,VALID,23.0769,VALID,172,VALID,0.453906,
2012-05-07, 03:24:04,VALID,999.477,VALID,0,VALID,95.6525,VALID,0,VALID,23.0981,VALID,172,VALID,0.419922,
2012-05-07, 03:25:04,VALID,999.456,VALID,0,VALID,95.6449,VALID,0,VALID,23.0981,VALID,172,VALID,0.480469,
2012-05-07, 03:26:04,VALID,999.469,VALID,0,VALID,95.6525,VALID,0,VALID,23.0769,VALID,155,VALID,0.608594,
2012-05-07, 03:27:04,VALID,999.482,VALID,0,VALID,95.6525,VALID,0,VALID,23.0769,VALID,61,VALID,0.666797,
2012-05-07, 03:28:04,VALID,999.47,VALID,0,VALID,95.6678,VALID,0,VALID,23.1176,VALID,61,VALID,0.790625,
2012-05-07, 03:29:04,VALID,999.464,VALID,0,VALID,95.6602,VALID,0,VALID,23.0964,VALID,58,VALID,0.761328,
2012-05-07, 03:30:04,VALID,999.481,VALID,0,VALID,95.6602,VALID,0,VALID,23.0964,VALID,54,VALID,0.773047,
2012-05-07, 03:31:04,VALID,999.482,VALID,0,VALID,95.6525,VALID,0,VALID,23.0964,VALID,54,VALID,0.671094,
2012-05-07, 03:32:04,VALID,999.49,VALID,0,VALID,95.6373,VALID,0,VALID,23.0964,VALID,54,VALID,0.592188,
2012-05-07, 03:33:04,VALID,999.467,VALID,0,VALID,95.6449,VALID,0,VALID,23.0769,VALID,54,VALID,0.469141,
2012-05-07, 03:34:04,VALID,999.464,VALID,0,VALID,95.6297,VALID,0,VALID,23.0981,VALID,54,VALID,0.612109,
2012-05-07, 03:35:04,VALID,999.45,VALID,0,VALID,95.622,VALID,0,VALID,23.0769,VALID,54,VALID,0.580469,
2012-05-07, 03:36:04,VALID,999.454,VALID,0,VALID,95.6373,VALID,0,VALID,23.0786,VALID,54,VALID,0.624609,
2012-05-07, 03:37:04,VALID,999.429,VALID,0,VALID,95.6373,VALID,0,VALID,23.0573,VALID,54,VALID,0.750781,
2012-05-07, 03:38:04,VALID,999.418,VALID,0,VALID,95.6525,VALID,0,VALID,23.0786,VALID,54,VALID,0.702734,
2012-05-07, 03:39:04,VALID,999.396,VALID,0,VALID,95.6602,VALID,0,VALID,23.0378,VALID,51,VALID,0.916016,
2012-05-07, 03:40:04,VALID,999.401,VALID,0,VALID,95.6297,VALID,0,VALID,23.0378,VALID,51,VALID,0.921094,
2012-05-07, 03:41:04,VALID,999.426,VALID,0,VALID,95.6602,VALID,0,VALID,23.0183,VALID,52,VALID,0.734375,
2012-05-07, 03:42:04,VALID,999.384,VALID,0,VALID,95.6449,VALID,0,VALID,23.0183,VALID,52,VALID,0.75,
2012-05-07, 03:43:04,VALID,999.375,VALID,0,VALID,95.6525,VALID,0,VALID,23.0183,VALID,58,VALID,1.05547,
2012-05-07, 03:44:04,VALID,999.389,VALID,0,VALID,95.6449,VALID,0,VALID,23.0201,VALID,62,VALID,0.808594,
2012-05-07, 03:45:04,VALID,999.387,VALID,0,VALID,95.6602,VALID,0,VALID,22.9793,VALID,72,VALID,0.808594,
2012-05-07, 03:46:04,VALID,999.391,VALID,0,VALID,95.6297,VALID,0,VALID,22.9793,VALID,72,VALID,0.921094,